Regional Weather Roundup
Issued by NWS Glasgow, MT

Home | Current Version | Previous Version | Text Only | Print | Product List | Glossary On
Versions: 1 2 3 4 5 6 7 8 9 10 11 12 13 14 15 16 17 18 19 20 21 22 23 24 25 26 27 28 29 30 31 32 33 34 35 36 37 38 39 40 41 42 43 44 45 46 47 48 49
000
ASUS45 KGGW 272015
RWRGGW
HOURLY WEATHER ROUNDUP FOR NORTHEAST MONTANA
NATIONAL WEATHER SERVICE GLASGOW MONTANA
100 PM MST THU NOV 27 2014

NOTE: "FAIR" INDICATES FEW OR NO CLOUDS BELOW 12,000 FEET WITH NO
SIGNIFICANT WEATHER AND/OR OBSTRUCTIONS TO VISISBILITY.

NORTHEAST MONTANA


CITY           SKY/WX    TMP DP  RH WIND       PRES   REMARKS
GLASGOW        MOSUNNY   31  28  89 E13       29.75F
PLENTYWOOD       N/A     20  19  96 E12G22      N/A
WOLF POINT     CLOUDY    33  28  81 E9        29.80F
JORDAN           N/A     45  33  63 W12       29.75F
WINNETT          N/A     53  32  44 S3          N/A
SIDNEY         CLOUDY    28  25  86 SE12      29.87F
GLENDIVE       CLOUDY    32  25  74 S9        29.82F
MALTA            N/A     44  33  65 N3          N/A
SCOBEY           N/A     20  13  74 E9        29.80F

FORT PECK REPORTS


CITY           SKY/WX    TMP DP  RH WIND       PRES   REMARKS
FORT PECK        N/A     37  32  82 SE13        N/A
THE PINES        N/A     39  32  76 SE7G15      N/A

SOUTHEAST MONTANA


CITY           SKY/WX    TMP DP  RH WIND       PRES   REMARKS
BILLINGS       PTSUNNY   47  30  51 SW26G32   29.86F
MILES CITY     CLOUDY    37  30  75 S7        29.82F
BAKER          CLOUDY    34  26  72 SE12      29.84F
LIVINGSTON     CLOUDY    59  30  33 SW28G38   29.92F

CENTRAL MONTANA


CITY           SKY/WX    TMP DP  RH WIND       PRES   REMARKS
HAVRE          SUNNY     51  38  60 SW18      29.70F
LEWISTOWN      SUNNY     53  36  52 W16       29.80F
GREAT FALLS    SUNNY     57  35  43 SW36G47   29.74F
CUT BANK       SUNNY     50  36  58 W44G51    29.67S
HELENA         SUNNY     47  32  56 VRB5      29.90F
BUTTE          CLOUDY    47  30  51 CALM      30.03F
BOZEMAN        PTSUNNY   45  31  58 CALM      29.97F

WESTERN MONTANA


CITY           SKY/WX    TMP DP  RH WIND       PRES   REMARKS
MISSOULA       CLOUDY    48  37  65 CALM      29.94F
KALISPELL      NOT AVBL

NORTH DAKOTA


CITY           SKY/WX    TMP DP  RH WIND       PRES   REMARKS
WILLISTON      LGT SNOW  21  17  84 SE9       29.89F VSB 1
DICKINSON      FRZ RAIN  21  17  84 SE20G30   29.86F FOG
MINOT          LGT SNOW  13   7  77 SE13      30.08F WCI  -2
BISMARCK       CLOUDY    10   4  76 SE10      30.13F WCI  -4

SOUTHERN SASKATCHEWAN


CITY           SKY/WX    TMP DP  RH WIND       PRES   REMARKS
REGINA         SNOW      12   9  85 E14       29.98F VSB 1/2 WCI  -3
MOOSE JAW      LGT SNOW  14  12  92 E14       29.95F DRFTSNOWWCI  -1
ESTEVAN        LGT SNOW  12   9  85 E15       29.98  FOG     WCI  -4
SWIFT CURRENT  LGT SNOW  21  19  93 E18G24    29.76F VSB 1




USA.gov is the U.S. government's official web portal to all federal, state and local government web resources and services.